Location: Hurecourt
(47.9030°N, 6.0653°E)
Time: 20:59:47
(UTC+00:00)

Okean 3 - Pass Details

Date: 14 July 2020
Orbit: 576 x 601 km, 82.5° (Epoch: 14 August)

Event Time Altitude Azimuth Distance (km) Brightness Sun altitude
Rises 01:49:52 0° 347° (NNW) 2,806 7.7 -14.8°
Reaches altitude 10° 01:52:05 10° 343° (NNW) 1,904 6.7 -14.6°
Maximum altitude 01:56:12 58° 265° (W) 680 3.5 -14.2°
Enters shadow 01:58:48 21° 192° (SSW) 1,313 4.7 -14.0°
